Location: Tane
(40.6000°S, 175.8333°E)
Time: 20:39:23
(UTC+00:00)

Daily predictions for brighter satellites

Satellite Brightness Start Highest point End
(mag) Time Altitude Azimuth Time Altitude Azimuth Time Altitude Azimuth
SJ 16-02 3.9 12:21:45 10° SSW 12:22:56 18° S 12:22:56 18° S
Cosmos 2369 Rocket 3.6 12:24:24 10° SSW 12:27:26 32° SW 12:27:26 32° SW
USA 281 4.4 12:24:02 10° SE 12:28:18 32° ESE 12:28:18 32° ESE
Cosmos 1943 4.3 12:37:53 40° S 12:37:53 40° S 12:41:39 10° SSE
ACS3 Solar Sail 3.1 12:42:16 29° ESE 12:42:16 29° ESE 12:47:08 10° S
USA 238 DEB 4.3 12:41:04 10° SW 12:45:28 44° SW 12:45:28 44° SW
USA 238 4.3 12:41:12 10° SW 12:45:36 44° SW 12:45:36 44° SW
ADEOS II 4.2 13:04:58 18° ESE 13:05:41 19° ESE 13:09:18 10° SSE
IDEFIX/ARIANE 42P 3.9 13:13:32 34° SSW 13:13:32 34° SSW 13:16:28 10° SSW
Resurs 1-4 Rocket 3.5 13:14:58 33° SE 13:14:58 33° SE 13:19:16 10° S
Cosmos 1833 Rocket 4.1 13:28:25 30° ESE 13:28:25 30° ESE 13:32:01 10° SE
USA 59 Rocket 1.6 13:40:44 10° SW 13:50:37 87° ESE 13:52:11 64° NE
Cosmos 1452 Rocket 4.4 13:54:35 45° S 13:54:35 45° S 13:58:22 10° SSE
ADEOS Rocket 3.1 13:53:51 76° ESE 13:53:51 76° ESE 14:00:32 10° S
CZ-3 Stage 3 4.2 14:01:34 29° NE 14:01:34 29° NE 14:12:42 10° E
ALOS 3.4 14:04:38 40° S 14:04:38 40° S 14:07:41 10° S
Cosmos 2154 Rocket 4.0 14:00:56 10° S 14:07:15 84° SE 14:07:15 84° SE
CZ-2D R/B 2.6 14:11:46 53° SSW 14:11:46 53° SSW 14:15:45 10° SSW
H-2A R/B 2.6 14:11:45 50° ESE 14:11:45 50° ESE 14:16:16 10° S
USA 281 3.9 14:08:27 10° S 14:14:36 42° WSW 14:15:10 41° WSW
CZ-2C R/B 3.4 14:10:36 10° S 14:14:46 44° SW 14:14:46 44° SW
Cosmos 2082 Rocket 4.2 14:14:45 16° ENE 14:16:09 17° E 14:19:47 10° ESE
Envisat 3.7 14:18:24 46° SSW 14:18:24 46° SSW 14:22:02 10° SSW
H-2A R/B 3.3 14:20:08 39° SE 14:20:08 39° SE 14:23:50 10° S
ACS3 Solar Sail 2.6 14:26:02 35° WSW 14:26:02 35° WSW 14:30:08 10° SSW
Meteor 1-13 Rocket 4.2 14:26:52 80° SSE 14:26:52 80° SSE 14:32:07 10° S
Cosmos 1633 Rocket 4.0 14:28:12 10° S 14:31:17 44° S 14:31:17 44° S
Cosmos 1992 Rocket 4.1 14:33:59 75° SSE 14:33:59 75° SSE 14:38:49 10° SSE
Meteor 1-15 Rocket 4.3 14:30:56 10° S 14:36:47 77° E 14:37:36 65° NE
Cosmos 2074 Rocket 4.4 14:31:31 10° SSW 14:37:03 47° WSW 14:37:03 47° WSW
AQUA 4.2 14:40:42 58° E 14:41:01 59° ESE 14:45:42 10° S
Cosmos 2184 Rocket 4.5 14:36:23 10° SSW 14:41:47 45° WSW 14:41:47 45° WSW
ADEOS II 2.5 14:45:48 48° WSW 14:45:48 48° WSW 14:49:58 10° SSW
Cosmos 1340 Rocket 3.9 14:46:23 10° S 14:49:26 40° SE 14:49:26 40° SE
Cosmos 1610 Rocket 4.4 14:44:29 10° SSW 14:50:37 64° W 14:50:56 63° WNW
ARGOS 3.7 14:48:04 29° NE 14:50:45 56° ESE 14:56:07 10° S
Okean 2 4.2 14:53:30 46° ESE 14:53:30 46° ESE 14:56:56 10° SSE
Resurs 1-4 Rocket 3.5 14:56:00 25° WSW 14:56:00 25° WSW 14:58:55 10° SW
Meteor 1-21 4.2 15:00:34 64° NNW 15:01:32 83° W 15:07:23 10° S
Cosmos 2341 Rocket 4.1 14:57:49 10° S 15:04:17 80° E 15:07:37 31° NNE
ATLAS CENTAUR R/B 3.6 15:09:25 10° SSW 15:09:25 10° SSW 15:09:26 10° SSW
Cosmos 1980 Rocket 3.0 15:02:47 10° SSW 15:08:24 52° ESE 15:13:53 10° NE
Cosmos 1833 Rocket 3.6 15:10:05 33° WSW 15:10:48 34° WSW 15:15:57 10° S
Cosmos 2366 rocket 4.0 15:05:33 10° S 15:11:50 84° E 15:15:13 29° N
Meteor 1-12 Rocket 4.4 15:05:56 10° S 15:11:58 77° E 15:15:27 26° NNE
COSMOS 2455 2.8 15:10:04 10° SW 15:16:02 61° WNW 15:17:50 43° N
METEOR-M 4.4 15:16:30 46° W 15:16:30 46° W 15:21:32 10° SSW
NOSS 3-1 (C) 3.5 15:11:44 10° SW 15:16:53 44° W 15:16:53 44° W
Cosmos 1697 Rocket 2.7 15:15:03 10° SSW 15:20:35 56° WNW 15:21:28 50° NW
NOSS 3-1 (A) 3.3 15:15:47 10° SSW 15:22:12 76° SE 15:27:13 10° NE
Cosmos 1953 4.1 15:21:06 10° SSW 15:22:25 19° SW 15:22:25 19° SW
COSMOS 2406 4.4 15:26:25 16° NNE 15:30:21 37° ENE 15:35:35 10° SE
ATLAS 2AS CENTAUR R/B 3.3 15:29:53 24° N 15:34:06 54° ENE 15:41:08 10° SE
Cosmos 1515 Rocket 4.3 15:35:21 36° WSW 15:35:21 36° WSW 15:39:22 10° S
USA 59 Rocket 2.8 15:32:01 10° WSW 15:37:40 22° W 15:37:40 22° W
Okean 3 3.3 15:41:08 52° NW 15:41:56 68° W 15:46:07 10° S
Cosmos 1763 Rocket 3.9 15:39:02 24° N 15:42:09 61° ENE 15:47:26 10° SSE
SL-8 Rocket 4.3 15:38:03 10° SSW 15:44:09 49° W 15:47:02 29° NNW
Cosmos 1486 Rocket 4.0 15:40:38 10° SSW 15:45:59 90° SE 15:51:18 10° NNE
Cosmos 1777 Rocket 4.1 15:42:08 10° SSW 15:47:27 76° ESE 15:52:40 10° NNE
Cosmos 2181 Rocket 4.0 15:46:02 29° NNW 15:49:14 61° W 15:55:26 10° S
Meteor 2-15 4.4 15:43:03 10° SSW 15:49:16 75° W 15:55:11 11° N
CZ-2C R/B 2.4 15:46:18 17° N 15:50:13 71° WNW 15:55:26 10° SSW
H-2A R/B 3.7 15:52:15 16° WSW 15:52:15 16° WSW 15:54:19 10° SW
Nadezhda 3 Rocket 4.2 15:46:10 13° N 15:51:55 75° E 15:58:15 10° S
Cosmos 2218 Rocket 4.2 15:48:07 10° SSW 15:54:10 49° W 15:58:01 22° NNW
H-2A R/B 3.9 15:56:31 16° WSW 15:56:31 16° WSW 15:58:08 10° SW
Lacrosse 5 rocket 3.6 15:57:23 10° NNE 15:59:08 13° ENE 16:00:51 10° E
Cosmos 2082 Rocket 2.3 15:56:36 28° NW 15:59:36 64° WSW 16:05:19 10° SSE
Cosmos 44 4.3 15:58:47 24° W 16:00:33 30° SW 16:04:39 10° SSE
Cosmos 2369 3.9 15:55:34 10° SSW 16:01:22 75° ESE 16:07:06 10° NNE
H-2A R/B 2.5 16:06:58 10° S 16:10:29 43° WSW 16:11:47 30° WNW
Cosmos 1354 Rocket 4.3 16:06:21 10° SSW 16:11:39 69° ESE 16:16:52 10° NNE
SL-08 RB Rocket 4.2 16:09:37 23° NNW 16:11:56 38° W 16:16:11 10° SSW
H-2A R/B 3.4 16:08:09 10° NNE 16:11:58 74° ESE 16:15:50 10° S
SL-16 R/B 3.8 16:08:17 10° S 16:13:36 38° ESE 16:18:52 10° NE
USA 267 3.5 16:08:15 10° SE 16:14:50 66° NE 16:20:23 15° NNW
Cosmos 2333 Rocket 4.2 16:10:39 10° S 16:15:52 33° ESE 16:21:02 10° ENE
Cosmos 1821 Rocket 4.3 16:10:10 10° SSW 16:16:19 47° W 16:22:22 10° NNW
Cosmos 2084 Rocket 4.1 16:14:52 24° WNW 16:16:57 40° SW 16:20:58 10° SSE
Spot 2 4.5 16:12:40 10° S 16:17:41 64° WSW 16:21:37 16° NNW
SJ-11-01 4.2 16:13:55 10° N 16:18:37 77° WNW 16:23:25 10° SSW
Cosmos 540 Rocket 3.5 16:18:24 18° NNW 16:22:18 67° WSW 16:27:30 10° SSE
Okean 1-7 2.9 16:29:09 10° NNW 16:33:23 67° W 16:37:38 10° S
JB-3 4.1 16:34:19 10° SSE 16:38:01 87° ENE 16:41:41 10° NNW
Cosmos 2228 Rocket 3.1 16:35:02 10° NNW 16:39:35 74° W 16:44:13 10° S
Cosmos 990 Rocket 3.9 16:38:23 10° SSW 16:43:33 67° WNW 16:48:42 10° N
Cosmos 2322 Rocket 3.9 16:41:17 10° S 16:46:41 39° ESE 16:52:01 10° NE
Cosmos 1980 Rocket 3.3 16:47:41 10° SW 16:51:55 22° W 16:56:07 10° NNW
Cosmos 1328 4.0 16:51:45 10° NNW 16:55:08 40° WSW 16:58:34 10° S
Cosmos 2237 4.4 16:52:26 10° SW 16:58:00 50° WNW 17:03:30 10° N
Cosmos 1939 Rocket 4.2 17:01:27 10° NW 17:04:06 18° W 17:06:45 10° SW
Aureole 1 Rocket 4.0 17:01:43 10° SSW 17:07:26 81° WNW 17:14:19 10° NNE
Cosmos 2278 3.9 17:02:23 10° SSW 17:08:10 85° ESE 17:13:52 10° NNE
CZ-3 R/B 3.5 17:12:06 10° W 17:30:39 37° NNW 17:37:17 10° NE
